Location: Unspecified
(0.0000°N, 0.0000°E)
Time: 17:15:49
(UTC+00:00)

AO-85 - Pass Details

Date: 04 December 2021
Orbit: 521 x 762 km, 64.8° (Epoch: 12 March)

Event Time Altitude Azimuth Distance (km) Brightness Sun altitude
Exits shadow 02:56:17 11° 118° (ESE) 1,900 ? -39.5°
Drops below altitude 10° 02:56:24 10° 119° (ESE) 1,936 ? -39.5°
Sets 02:58:57 0° 134° (SE) 2,801 ? -39.0°
